Sitka, AK

12:10 PM AKDT on June 28, 2017 (GMT -0800)
Sitka Rocky Gutierrez

Weather History for PASI - October, 2011

Change the Weather History Date:

Thursday, October 27, 2011

  Actual Average Record
Temperature  
Mean Temperature 45 °F -  
Max Temperature 46 °F 46 °F 59 °F (1965)
Min Temperature 42 °F 38 °F 23 °F (1971)
Degree Days  
Heating Degree Days 20    
Moisture  
Dew Point 39 °F    
Average Humidity 80    
Maximum Humidity 87    
Minimum Humidity 66    
Precipitation  
Precipitation 0.17 in - - ()
Sea Level Pressure  
Sea Level Pressure 29.78 in    
Wind  
Wind Speed 12 mph (SE)    
Max Wind Speed 23 mph    
Max Gust Speed 31 mph    
Visibility 9 miles    
Events Rain    
Averages and records for this station are not official NWS values.
T = Trace of Precipitation, MM = Missing Value Source: NWS Daily Summary

Daily Weather History Graph

Daily Weather History Graph

Search for Another Location

Airport or City:

Trip Planner

Search our weather history database for the weather conditions in past years. The results will help you decide how hot, cold, wet, or windy it might be!

Date:

Astronomy

Oct. 27, 2011 Rise Set
Actual Time 8:00 AM AKDT 5:28 PM AKDT
Civil Twilight 7:20 AM AKDT 6:08 PM AKDT
Nautical Twilight 6:35 AM AKDT 6:53 PM AKDT
Astronomical Twilight 5:51 AM AKDT 7:37 PM AKDT
Moon 9:42 AM AKDT (10/27) 5:32 PM AKDT (10/27)
Length of Visible Light 10h 48m
Length of Day
9h 28m
New Moon, 2% of the Moon is Illuminated
Oct 27
New Moon
Nov 2
First Quarter
Nov 10
Full
Nov 18
Last Quarter
Nov 24
New

Hourly Weather History & Observations

Time (AKDT) Temp. Windchill Dew Point Humidity Pressure Visibility Wind Dir Wind Speed Gust Speed Precip Events Conditions
12:00 AM 44.6 °F 40.2 °F 39.2 °F 81% 29.93 in 3.0 mi WSW 8.1 mph 20.7 mph N/A Rain Light Rain
12:53 AM 46.9 °F - 41.0 °F 80% 29.94 in 10.0 mi SW 12.7 mph - 0.01 in   Overcast
12:58 AM 46.4 °F 40.1 °F 41.0 °F 81% 29.95 in - SSW 15.0 mph 20.7 mph N/A Rain Light Rain
1:08 AM 46.4 °F 40.4 °F 41.0 °F 81% 29.94 in 10.0 mi SW 13.8 mph - N/A   Overcast
2:00 AM 48.2 °F - 41.0 °F 76% 29.95 in - SW 23.0 mph 31.1 mph N/A   Unknown
2:24 AM 44.6 °F 39.7 °F 39.2 °F 81% 29.95 in 10.0 mi West 9.2 mph - 0.00 in Rain Light Rain
2:53 AM 44.1 °F 42.5 °F 37.9 °F 79% 29.94 in 10.0 mi NNE 3.5 mph - 0.00 in   Overcast
3:26 AM 46.4 °F 39.5 °F 39.2 °F 76% 29.95 in 10.0 mi SW 17.3 mph - 0.01 in Rain Light Rain
3:53 AM 45.0 °F 38.9 °F 39.9 °F 82% 29.96 in 9.0 mi SW 12.7 mph - 0.01 in Rain Light Rain
5:56 AM 42.8 °F 37.0 °F 39.2 °F 87% 29.94 in 10.0 mi ESE 10.4 mph - N/A Rain Light Rain
7:10 AM 42.8 °F 36.6 °F 39.2 °F 87% 29.92 in 10.0 mi East 11.5 mph - N/A   Overcast
7:59 AM 42.8 °F 38.0 °F 39.2 °F 87% 29.91 in 10.0 mi ESE 8.1 mph - N/A   Overcast
8:53 AM 43.0 °F 35.7 °F 37.9 °F 82% 29.90 in 10.0 mi ESE 15.0 mph 18.4 mph 0.01 in Rain Light Rain
8:56 AM 42.8 °F 35.1 °F 37.4 °F 81% 29.90 in 6.0 mi East 16.1 mph 23.0 mph N/A Rain Light Rain
9:41 AM 42.8 °F 37.0 °F 39.2 °F 87% 29.90 in 6.0 mi SE 10.4 mph 23.0 mph 0.03 in Rain Light Rain
9:53 AM 43.0 °F 36.8 °F 39.0 °F 86% 29.90 in 5.0 mi SE 11.5 mph - 0.03 in Rain Light Rain
10:24 AM 42.8 °F 37.0 °F 37.4 °F 81% 29.88 in 7.0 mi ESE 10.4 mph - 0.02 in Rain Light Rain
10:53 AM 43.0 °F 35.4 °F 37.9 °F 82% 29.87 in 10.0 mi East 16.1 mph - 0.02 in   Overcast
11:30 AM 42.8 °F 37.0 °F 39.2 °F 87% 29.86 in 7.0 mi ESE 10.4 mph - 0.03 in Rain Light Rain
11:53 AM 44.1 °F 39.5 °F 39.0 °F 82% 29.85 in 9.0 mi ESE 8.1 mph - 0.03 in Rain Light Rain
12:04 PM 44.6 °F 38.4 °F 37.4 °F 76% 29.85 in 10.0 mi ESE 12.7 mph - 0.00 in   Overcast
12:53 PM 44.1 °F 37.7 °F 39.0 °F 82% 29.82 in 7.0 mi East 12.7 mph - 0.01 in Rain Light Rain
1:53 PM 45.0 °F 39.3 °F 39.0 °F 80% 29.79 in 8.0 mi ESE 11.5 mph - 0.02 in Rain Light Rain
2:53 PM 45.0 °F 39.7 °F 39.0 °F 80% 29.76 in 10.0 mi ESE 10.4 mph - 0.03 in Rain Light Rain
3:53 PM 45.0 °F 38.9 °F 39.0 °F 80% 29.71 in 10.0 mi ESE 12.7 mph - 0.00 in Rain Light Rain
4:53 PM 45.0 °F 39.3 °F 37.9 °F 76% 29.65 in 10.0 mi SE 11.5 mph - 0.00 in   Overcast
5:53 PM 45.0 °F 39.3 °F 37.9 °F 76% 29.58 in 10.0 mi SE 11.5 mph - N/A   Overcast
6:53 PM 45.0 °F 40.6 °F 37.0 °F 74% 29.52 in 10.0 mi ESE 8.1 mph - N/A   Overcast
7:53 PM 45.0 °F 41.2 °F 36.0 °F 71% 29.47 in 10.0 mi East 6.9 mph - N/A   Overcast
8:53 PM 43.0 °F 41.3 °F 39.0 °F 86% 29.41 in 10.0 mi NNE 3.5 mph - N/A   Overcast
9:53 PM 46.0 °F 39.9 °F 35.1 °F 66% 29.34 in 10.0 mi East 13.8 mph 19.6 mph N/A   Overcast
10:53 PM 44.1 °F 38.6 °F 35.1 °F 71% 29.27 in 10.0 mi East 10.4 mph 19.6 mph 0.00 in Rain Light Rain
11:53 PM 44.1 °F 38.6 °F 36.0 °F 73% 29.18 in 10.0 mi ENE 10.4 mph 17.3 mph 0.00 in Rain Light Rain